Tracking 25195 objects as of 20-Jan-2022
HD Live streaming from Space Station
objects crossing your sky now

STARLINK-2184

Track STARLINK-2184 now!
10-day predictions
STARLINK-2184 is classified as:


NORAD ID: 47766
Int'l Code: 2021-017AW
Perigee: 553.3 km
Apogee: 555.4 km
Inclination: 53.1 °
Period: 95.6 minutes
Semi major axis: 6925 km
RCS: Unknown
Launch date: March 4, 2021
Source: United States (US)
Launch site: AIR FORCE EASTERN TEST RANGE (AFETR)
aabbcc
Your satellite tracking list
Your tracking list is empty




NASA's NSSDC Master Catalog

Two Line Element Set (TLE):
1 47766U 21017AW  22019.81519445  .00002507  00000-0  18713-3 0  9999
2 47766  53.0554 164.7153 0001583  74.1878 285.9285 15.06399600 49936
Source of the keplerian elements: AFSPC